This is the latest recevied weather packets stored in our database for station/object KN4DS-3. If no packets are shown the sender has not sent any weather packets the latest 10 day(s).
| Time | Temp. | Humidity | Pressure | Rain* | Wind** | Luminosity | Snow |
|---|---|---|---|---|---|---|---|
| 1777713304 | 12.22° C | 96% | 1011.7 hPa | 0.25 mm | - | - | - |
| 1777713004 | 12.22° C | 96% | 1011.6 hPa | 0.25 mm | - | - | - |
| 1777712704 | 12.22° C | 96% | 1011.6 hPa | 0.51 mm | - | - | - |
| 1777712404 | 12.22° C | 96% | 1011.6 hPa | 0.76 mm | - | - | - |
| 1777712104 | 12.22° C | 96% | 1011.8 hPa | 1.02 mm | - | - | - |
| 1777711804 | 12.22° C | 96% | 1011.9 hPa | 1.02 mm | - | - | - |
| 1777711505 | 12.22° C | 96% | 1012.2 hPa | 1.27 mm | - | - | - |
| 1777711204 | 12.22° C | 95% | 1012.4 hPa | 1.52 mm | - | - | - |
| 1777710904 | 12.22° C | 95% | 1012.5 hPa | 1.78 mm | - | - | - |
| 1777710604 | 12.22° C | 95% | 1012.5 hPa | 1.52 mm | - | - | - |
| 1777710304 | 12.22° C | 95% | 1012.6 hPa | 1.78 mm | - | - | - |
| 1777710004 | 12.22° C | 95% | 1012.6 hPa | 1.78 mm | - | - | - |
| 1777709704 | 12.22° C | 95% | 1012.5 hPa | 1.78 mm | - | - | - |
| 1777709404 | 12.22° C | 95% | 1012.3 hPa | 2.03 mm | - | - | - |
| 1777709104 | 12.22° C | 95% | 1012.3 hPa | 1.78 mm | - | - | - |
| 1777708804 | 12.22° C | 95% | 1012.5 hPa | 1.78 mm | - | - | - |
| 1777708504 | 12.22° C | 95% | 1012.7 hPa | 1.52 mm | - | - | - |
| 1777708204 | 12.78° C | 95% | 1012.6 hPa | 1.52 mm | - | - | - |
| 1777707904 | 12.78° C | 95% | 1012.3 hPa | 1.27 mm | - | - | - |
| 1777707604 | 12.78° C | 95% | 1012.4 hPa | 1.27 mm | - | - | - |
| 1777707304 | 12.78° C | 95% | 1012.9 hPa | 1.02 mm | - | - | - |
| 1777707005 | 12.78° C | 95% | 1012.5 hPa | 1.27 mm | - | - | - |
| 1777706704 | 12.78° C | 95% | 1012.2 hPa | 1.27 mm | - | - | - |
| 1777706405 | 12.78° C | 95% | 1012.6 hPa | 1.52 mm | - | - | - |
| 1777706104 | 12.78° C | 95% | 1012.6 hPa | 2.29 mm | - | - | - |
* Rain latest hour (hover to see other rain measurements)
** Current wind speed in m/s (hover to see current wind gust speed)